TimeEET,TemperatureF,Dew PointF,Humidity,Sea Level PressureIn,VisibilityMPH,Wind Direction,Wind SpeedMPH,Gust SpeedMPH,PrecipitationIn,Events,Conditions,WindDirDegrees,DateUTC
12:20 AM,46.4,42.8,87,29.83,3.7,NW,3.5,-,N/A,,Scattered Clouds,310,2013-01-28 22:20:00
12:50 AM,44.6,42.8,93,29.83,3.1,Variable,2.3,-,N/A,,Scattered Clouds,0,2013-01-28 22:50:00
1:20 AM,44.6,41.0,87,29.83,3.1,West,2.3,-,N/A,,Scattered Clouds,280,2013-01-28 23:20:00
1:50 AM,42.8,41.0,93,29.83,3.1,Calm,Calm,-,N/A,,Scattered Clouds,0,2013-01-28 23:50:00
2:20 AM,42.8,41.0,93,29.80,3.1,SSE,3.5,-,N/A,,Scattered Clouds,160,2013-01-29 00:20:00
2:50 AM,42.8,39.2,87,29.80,0.5,SSE,3.5,-,N/A,Fog,Fog,160,2013-01-29 00:50:00
3:20 AM,42.8,41.0,93,29.80,0.5,Calm,Calm,-,N/A,Fog,Fog,0,2013-01-29 01:20:00
3:50 AM,42.8,41.0,93,29.80,0.5,West,2.3,-,N/A,Fog,Fog,280,2013-01-29 01:50:00
4:20 AM,41.0,39.2,93,29.80,0.5,Calm,Calm,-,N/A,Fog,Fog,0,2013-01-29 02:20:00
4:50 AM,41.0,39.2,93,29.80,0.5,NNE,2.3,-,N/A,Fog,Fog,20,2013-01-29 02:50:00
5:20 AM,39.2,37.4,93,29.80,0.5,Variable,1.2,-,N/A,Fog,Fog,0,2013-01-29 03:20:00
5:50 AM,39.2,39.2,100,29.80,0.5,Calm,Calm,-,N/A,Fog,Patches of Fog,0,2013-01-29 03:50:00
6:20 AM,41.0,39.2,93,29.80,1.2,NE,3.5,-,N/A,,Partly Cloudy,40,2013-01-29 04:20:00
6:50 AM,39.2,37.4,93,29.83,1.2,Calm,Calm,-,N/A,,Partly Cloudy,0,2013-01-29 04:50:00
7:20 AM,42.8,41.0,93,29.83,6.2,NE,8.1,-,N/A,,Scattered Clouds,40,2013-01-29 05:20:00
7:50 AM,46.4,44.6,93,29.83,6.2,NNE,6.9,-,N/A,,Scattered Clouds,30,2013-01-29 05:50:00
8:20 AM,48.2,46.4,93,29.83,6.2,North,5.8,-,N/A,,Scattered Clouds,360,2013-01-29 06:20:00
8:50 AM,48.2,44.6,87,29.83,6.2,NE,8.1,-,N/A,,Scattered Clouds,40,2013-01-29 06:50:00
9:20 AM,53.6,44.6,72,29.83,6.2,NNE,5.8,-,N/A,,Scattered Clouds,20,2013-01-29 07:20:00
9:50 AM,55.4,44.6,67,29.83,6.2,NE,6.9,-,N/A,,Scattered Clouds,40,2013-01-29 07:50:00
10:20 AM,57.2,44.6,63,29.83,6.2,ENE,6.9,-,N/A,,Scattered Clouds,60,2013-01-29 08:20:00
10:50 AM,59.0,44.6,59,29.80,6.2,NE,5.8,-,N/A,,Scattered Clouds,50,2013-01-29 08:50:00
11:20 AM,60.8,44.6,55,29.80,6.2,ENE,5.8,-,N/A,,Scattered Clouds,70,2013-01-29 09:20:00
11:50 AM,60.8,44.6,55,29.80,6.2,Variable,4.6,-,N/A,,Scattered Clouds,0,2013-01-29 09:50:00
12:20 PM,60.8,44.6,55,29.80,6.2,East,6.9,-,N/A,,Scattered Clouds,80,2013-01-29 10:20:00
12:50 PM,62.6,39.2,42,29.80,6.2,Variable,4.6,-,N/A,,Scattered Clouds,0,2013-01-29 10:50:00
1:20 PM,62.6,39.2,42,29.80,6.2,North,4.6,-,N/A,,Scattered Clouds,10,2013-01-29 11:20:00
1:50 PM,62.6,41.0,45,29.80,6.2,NNE,6.9,-,N/A,,Scattered Clouds,30,2013-01-29 11:50:00
2:20 PM,62.6,39.2,42,29.80,6.2,NNE,6.9,-,N/A,,Scattered Clouds,30,2013-01-29 12:20:00
2:50 PM,62.6,26.6,26,29.80,6.2,North,11.5,-,N/A,,Scattered Clouds,350,2013-01-29 12:50:00
3:20 PM,60.8,28.4,29,29.80,6.2,North,9.2,-,N/A,,Scattered Clouds,10,2013-01-29 13:20:00
3:50 PM,59.0,26.6,29,29.80,6.2,North,10.4,-,N/A,,Scattered Clouds,350,2013-01-29 13:50:00
4:20 PM,59.0,26.6,29,29.80,6.2,North,11.5,-,N/A,,Scattered Clouds,350,2013-01-29 14:20:00
4:50 PM,57.2,26.6,31,29.83,6.2,North,11.5,-,N/A,,Scattered Clouds,360,2013-01-29 14:50:00
5:20 PM,57.2,24.8,29,29.83,6.2,North,12.7,-,N/A,,Scattered Clouds,360,2013-01-29 15:20:00
5:50 PM,57.2,26.6,31,29.83,6.2,North,12.7,-,N/A,,Scattered Clouds,360,2013-01-29 15:50:00
6:20 PM,55.4,26.6,33,29.86,6.2,NNE,6.9,-,N/A,,Scattered Clouds,20,2013-01-29 16:20:00
6:50 PM,55.4,28.4,36,29.86,3.1,NNE,6.9,-,N/A,,Haze,20,2013-01-29 16:50:00
7:20 PM,53.6,30.2,41,29.86,3.1,NNE,6.9,-,N/A,,Haze,20,2013-01-29 17:20:00
7:50 PM,50.0,32.0,50,29.86,3.1,NNE,5.8,-,N/A,,Haze,30,2013-01-29 17:50:00
8:20 PM,51.8,32.0,47,29.86,3.1,ENE,4.6,-,N/A,,Haze,70,2013-01-29 18:20:00
8:50 PM,48.2,33.8,58,29.89,3.1,East,3.5,-,N/A,,Haze,100,2013-01-29 18:50:00
9:20 PM,50.0,33.8,54,29.89,3.1,NNE,4.6,-,N/A,,Haze,30,2013-01-29 19:20:00
9:50 PM,48.2,37.4,66,29.89,3.1,East,3.5,-,N/A,,Haze,80,2013-01-29 19:50:00
10:20 PM,48.2,37.4,66,29.89,3.1,Variable,2.3,-,N/A,,Haze,0,2013-01-29 20:20:00
11:20 PM,48.2,37.4,66,29.89,3.1,Variable,2.3,-,N/A,,Haze,0,2013-01-29 21:20:00
11:50 PM,48.2,37.4,66,29.89,3.1,East,4.6,-,N/A,,Haze,100,2013-01-29 21:50:00